Year,Month,Day,Hour,Minute,Value (Times are PST for windgust in km/hr)
2010,07,12,00,00,27.40
2010,07,12,00,01,25.70
2010,07,12,00,02,25.70
2010,07,12,00,03,37.00
2010,07,12,00,04,38.60
2010,07,12,00,05,35.40
2010,07,12,00,06,35.40
2010,07,12,00,07,37.00
2010,07,12,00,08,40.20
2010,07,12,00,09,41.80
2010,07,12,00,10,38.60
2010,07,12,00,11,32.20
2010,07,12,00,12,33.80
2010,07,12,00,13,43.50
2010,07,12,00,14,29.00
2010,07,12,00,15,29.00
2010,07,12,00,16,32.20
2010,07,12,00,17,32.20
2010,07,12,00,18,29.00
2010,07,12,00,19,40.20
2010,07,12,00,20,25.70
2010,07,12,00,21,30.60
2010,07,12,00,22,25.70
2010,07,12,00,23,37.00
2010,07,12,00,24,37.00
2010,07,12,00,25,27.40
2010,07,12,00,26,32.20
2010,07,12,00,27,37.00
2010,07,12,00,28,29.00
2010,07,12,00,29,33.80
2010,07,12,00,30,46.70
2010,07,12,00,31,32.20
2010,07,12,00,32,33.80
2010,07,12,00,33,25.70
2010,07,12,00,34,30.60
2010,07,12,00,35,27.40
2010,07,12,00,36,33.80
2010,07,12,00,37,22.50
2010,07,12,00,38,20.90
2010,07,12,00,39,30.60
2010,07,12,00,40,32.20
2010,07,12,00,41,24.20
2010,07,12,00,42,25.70
2010,07,12,00,43,30.60
2010,07,12,00,44,33.80
2010,07,12,00,45,30.60
2010,07,12,00,46,30.60
2010,07,12,00,47,32.20
2010,07,12,00,48,20.90
2010,07,12,00,49,27.40
2010,07,12,00,50,35.40
2010,07,12,00,51,35.40
2010,07,12,00,52,35.40
2010,07,12,00,53,30.60
2010,07,12,00,54,32.20
2010,07,12,00,55,32.20
2010,07,12,00,56,29.00
2010,07,12,00,57,32.20
2010,07,12,00,58,32.20
2010,07,12,00,59,37.00
2010,07,12,01,00,37.00
2010,07,12,01,01,48.30
2010,07,12,01,02,24.20
2010,07,12,01,03,30.60
2010,07,12,01,04,27.40
2010,07,12,01,05,43.50
2010,07,12,01,06,40.20
2010,07,12,01,07,20.90
2010,07,12,01,08,19.30
2010,07,12,01,09,22.50
2010,07,12,01,10,25.70
2010,07,12,01,11,29.00
2010,07,12,01,12,41.80
2010,07,12,01,13,35.40
2010,07,12,01,14,24.20
2010,07,12,01,15,29.00
2010,07,12,01,16,32.20
2010,07,12,01,17,29.00
2010,07,12,01,18,29.00
2010,07,12,01,19,35.40
2010,07,12,01,20,33.80
2010,07,12,01,21,32.20
2010,07,12,01,22,32.20
2010,07,12,01,23,37.00
2010,07,12,01,24,37.00
2010,07,12,01,25,32.20
2010,07,12,01,26,30.60
2010,07,12,01,27,30.60
2010,07,12,01,28,32.20
2010,07,12,01,29,25.70
2010,07,12,01,30,35.40
2010,07,12,01,31,40.20
2010,07,12,01,32,35.40
2010,07,12,01,33,30.60
2010,07,12,01,34,19.30
2010,07,12,01,35,29.00
2010,07,12,01,36,33.80
2010,07,12,01,37,32.20
2010,07,12,01,38,25.70
2010,07,12,01,39,29.00
2010,07,12,01,40,24.20
2010,07,12,01,41,32.20
2010,07,12,01,42,41.80
2010,07,12,01,43,33.80
2010,07,12,01,44,43.50
2010,07,12,01,45,27.40
2010,07,12,01,46,25.70
2010,07,12,01,47,43.50
2010,07,12,01,48,33.80
2010,07,12,01,49,35.40
2010,07,12,01,50,38.60
2010,07,12,01,51,33.80
2010,07,12,01,52,37.00
2010,07,12,01,53,37.00
2010,07,12,01,54,32.20
2010,07,12,01,55,33.80
2010,07,12,01,56,35.40
2010,07,12,01,57,27.40
2010,07,12,01,58,27.40
2010,07,12,01,59,37.00
2010,07,12,02,00,33.80
2010,07,12,02,01,33.80
2010,07,12,02,02,37.00
2010,07,12,02,03,40.20
2010,07,12,02,04,41.80
2010,07,12,02,05,35.40
2010,07,12,02,06,30.60
2010,07,12,02,07,33.80
2010,07,12,02,08,37.00
2010,07,12,02,09,38.60
2010,07,12,02,10,48.30
2010,07,12,02,11,43.50
2010,07,12,02,12,38.60
2010,07,12,02,13,35.40
2010,07,12,02,14,35.40
2010,07,12,02,15,37.00
2010,07,12,02,16,32.20
2010,07,12,02,17,32.20
2010,07,12,02,18,40.20
2010,07,12,02,19,27.40
2010,07,12,02,20,33.80
2010,07,12,02,21,37.00
2010,07,12,02,22,24.20
2010,07,12,02,23,40.20
2010,07,12,02,24,41.80
2010,07,12,02,25,32.20
2010,07,12,02,26,33.80
2010,07,12,02,27,40.20
2010,07,12,02,28,33.80
2010,07,12,02,29,30.60
2010,07,12,02,30,35.40
2010,07,12,02,31,32.20
2010,07,12,02,32,35.40
2010,07,12,02,33,30.60
2010,07,12,02,34,27.40
2010,07,12,02,35,20.90
2010,07,12,02,36,30.60
2010,07,12,02,37,29.00
2010,07,12,02,38,29.00
2010,07,12,02,39,27.40
2010,07,12,02,40,29.00
2010,07,12,02,41,27.40
2010,07,12,02,42,35.40
2010,07,12,02,43,29.00
2010,07,12,02,44,30.60
2010,07,12,02,45,32.20
2010,07,12,02,46,37.00
2010,07,12,02,47,32.20
2010,07,12,02,48,25.70
2010,07,12,02,49,32.20
2010,07,12,02,50,33.80
2010,07,12,02,51,33.80
2010,07,12,02,52,32.20
2010,07,12,02,53,29.00
2010,07,12,02,54,30.60
2010,07,12,02,55,29.00
2010,07,12,02,56,30.60
2010,07,12,02,57,35.40
2010,07,12,02,58,30.60
2010,07,12,02,59,27.40
2010,07,12,03,00,37.00
2010,07,12,03,01,32.20
2010,07,12,03,02,38.60
2010,07,12,03,03,32.20
2010,07,12,03,04,32.20
2010,07,12,03,05,38.60
2010,07,12,03,06,35.40
2010,07,12,03,07,35.40
2010,07,12,03,08,24.20
2010,07,12,03,09,35.40
2010,07,12,03,10,37.00
2010,07,12,03,11,43.50
2010,07,12,03,12,30.60
2010,07,12,03,13,37.00
2010,07,12,03,14,37.00
2010,07,12,03,15,40.20
2010,07,12,03,16,32.20
2010,07,12,03,17,35.40
2010,07,12,03,18,33.80
2010,07,12,03,19,32.20
2010,07,12,03,20,25.70
2010,07,12,03,21,29.00
2010,07,12,03,22,37.00
2010,07,12,03,23,29.00
2010,07,12,03,24,33.80
2010,07,12,03,25,29.00
2010,07,12,03,26,32.20
2010,07,12,03,27,27.40
2010,07,12,03,28,29.00
2010,07,12,03,29,29.00
2010,07,12,03,30,27.40
2010,07,12,03,31,41.80
2010,07,12,03,32,32.20
2010,07,12,03,33,24.20
2010,07,12,03,34,30.60
2010,07,12,03,35,32.20
2010,07,12,03,36,32.20
2010,07,12,03,37,33.80
2010,07,12,03,38,35.40
2010,07,12,03,39,40.20
2010,07,12,03,40,25.70
2010,07,12,03,41,32.20
2010,07,12,03,42,29.00
2010,07,12,03,43,24.20
2010,07,12,03,44,32.20
2010,07,12,03,45,27.40
2010,07,12,03,46,35.40
2010,07,12,03,47,32.20
2010,07,12,03,48,30.60
2010,07,12,03,49,24.20
2010,07,12,03,50,27.40
2010,07,12,03,51,17.70
2010,07,12,03,52,35.40
2010,07,12,03,53,32.20
2010,07,12,03,54,16.10
2010,07,12,03,55,30.60
2010,07,12,03,56,46.70
2010,07,12,03,57,25.70
2010,07,12,03,58,24.20
2010,07,12,03,59,27.40
2010,07,12,04,00,25.70
2010,07,12,04,01,20.90
2010,07,12,04,02,33.80
2010,07,12,04,03,25.70
2010,07,12,04,04,32.20
2010,07,12,04,05,33.80
2010,07,12,04,06,33.80
2010,07,12,04,07,27.40
2010,07,12,04,08,25.70
2010,07,12,04,09,27.40
2010,07,12,04,10,35.40
2010,07,12,04,11,25.70
2010,07,12,04,12,41.80
2010,07,12,04,13,38.60
2010,07,12,04,14,35.40
2010,07,12,04,15,32.20
2010,07,12,04,16,27.40
2010,07,12,04,17,27.40
2010,07,12,04,18,38.60
2010,07,12,04,19,24.20
2010,07,12,04,20,24.20
2010,07,12,04,21,35.40
2010,07,12,04,22,35.40
2010,07,12,04,23,25.70
2010,07,12,04,24,19.30
2010,07,12,04,25,25.70
2010,07,12,04,26,20.90
2010,07,12,04,27,20.90
2010,07,12,04,28,30.60
2010,07,12,04,29,30.60
2010,07,12,04,30,25.70
2010,07,12,04,31,22.50
2010,07,12,04,32,22.50
2010,07,12,04,33,17.70
2010,07,12,04,34,16.10
2010,07,12,04,35,19.30
2010,07,12,04,36,22.50
2010,07,12,04,37,27.40
2010,07,12,04,38,27.40
2010,07,12,04,39,30.60
2010,07,12,04,40,19.30
2010,07,12,04,41,19.30
2010,07,12,04,42,27.40
2010,07,12,04,43,24.20
2010,07,12,04,44,29.00
2010,07,12,04,45,27.40
2010,07,12,04,46,29.00
2010,07,12,04,47,14.50
2010,07,12,04,48,20.90
2010,07,12,04,49,32.20
2010,07,12,04,50,20.90
2010,07,12,04,51,17.70
2010,07,12,04,52,30.60
2010,07,12,04,53,29.00
2010,07,12,04,54,19.30
2010,07,12,04,55,32.20
2010,07,12,04,56,16.10
2010,07,12,04,57,19.30
2010,07,12,04,58,25.70
2010,07,12,04,59,38.60
2010,07,12,05,00,29.00
2010,07,12,05,01,22.50
2010,07,12,05,02,24.20
2010,07,12,05,03,22.50
2010,07,12,05,04,9.60
2010,07,12,05,05,19.30
2010,07,12,05,06,20.90
2010,07,12,05,07,20.90
2010,07,12,05,08,27.40
2010,07,12,05,09,14.50
2010,07,12,05,10,11.30
2010,07,12,05,11,17.70
2010,07,12,05,12,14.50
2010,07,12,05,13,11.30
2010,07,12,05,14,22.50
2010,07,12,05,15,24.20
2010,07,12,05,16,20.90
2010,07,12,05,17,8.10
2010,07,12,05,18,17.70
2010,07,12,05,19,17.70
2010,07,12,05,20,8.10
2010,07,12,05,21,9.60
2010,07,12,05,22,11.30
2010,07,12,05,23,16.10
2010,07,12,05,24,6.40
2010,07,12,05,25,17.70
2010,07,12,05,26,8.10
2010,07,12,05,27,22.50
2010,07,12,05,28,14.50
2010,07,12,05,29,16.10
2010,07,12,05,30,16.10
2010,07,12,05,31,14.50
2010,07,12,05,32,16.10
2010,07,12,05,33,16.10
2010,07,12,05,34,14.50
2010,07,12,05,35,20.90
2010,07,12,05,36,14.50
2010,07,12,05,37,16.10
2010,07,12,05,38,14.50
2010,07,12,05,39,17.70
2010,07,12,05,40,20.90
2010,07,12,05,41,20.90
2010,07,12,05,42,20.90
2010,07,12,05,43,14.50
2010,07,12,05,44,19.30
2010,07,12,05,45,20.90
2010,07,12,05,46,16.10
2010,07,12,05,47,8.10
2010,07,12,05,48,6.40
2010,07,12,05,49,14.50
2010,07,12,05,50,14.50
2010,07,12,05,51,19.30
2010,07,12,05,52,17.70
2010,07,12,05,53,11.30
2010,07,12,05,54,27.40
2010,07,12,05,55,24.20
2010,07,12,05,56,11.30
2010,07,12,05,57,16.10
2010,07,12,05,58,19.30
2010,07,12,05,59,12.90
2010,07,12,06,00,16.10
2010,07,12,06,01,14.50
2010,07,12,06,02,11.30
2010,07,12,06,03,11.30
2010,07,12,06,04,14.50
2010,07,12,06,05,14.50
2010,07,12,06,06,19.30
2010,07,12,06,07,20.90
2010,07,12,06,08,19.30
2010,07,12,06,09,16.10
2010,07,12,06,10,11.30
2010,07,12,06,11,33.80
2010,07,12,06,12,30.60
2010,07,12,06,13,33.80
2010,07,12,06,14,25.70
2010,07,12,06,15,29.00
2010,07,12,06,16,20.90
2010,07,12,06,17,17.70
2010,07,12,06,18,8.10
2010,07,12,06,19,16.10
2010,07,12,06,20,14.50
2010,07,12,06,21,6.40
2010,07,12,06,22,17.70
2010,07,12,06,23,17.70
2010,07,12,06,24,9.60
2010,07,12,06,25,24.20
2010,07,12,06,26,19.30
2010,07,12,06,27,32.20
2010,07,12,06,28,19.30
2010,07,12,06,29,16.10
2010,07,12,06,30,6.40
2010,07,12,06,31,8.10
2010,07,12,06,32,11.30
2010,07,12,06,33,17.70
2010,07,12,06,34,6.40
2010,07,12,06,35,27.40
2010,07,12,06,36,6.40
2010,07,12,06,37,6.40
2010,07,12,06,38,8.10
2010,07,12,06,39,8.10
2010,07,12,06,40,6.40
2010,07,12,06,41,19.30
2010,07,12,06,42,19.30
2010,07,12,06,43,27.40
2010,07,12,06,44,29.00
2010,07,12,06,45,19.30
2010,07,12,06,46,24.20
2010,07,12,06,47,11.30
2010,07,12,06,48,19.30
2010,07,12,06,49,6.40
2010,07,12,06,50,3.20
2010,07,12,06,51,8.10
2010,07,12,06,52,11.30
2010,07,12,06,53,11.30
2010,07,12,06,54,24.20
2010,07,12,06,55,20.90
2010,07,12,06,56,27.40
2010,07,12,06,57,20.90
2010,07,12,06,58,12.90
2010,07,12,06,59,14.50
2010,07,12,07,00,6.40
2010,07,12,07,01,9.60
2010,07,12,07,02,8.10
2010,07,12,07,03,9.60
2010,07,12,07,04,6.40
2010,07,12,07,05,8.10
2010,07,12,07,06,11.30
2010,07,12,07,07,12.90
2010,07,12,07,08,8.10
2010,07,12,07,09,9.60
2010,07,12,07,10,14.50
2010,07,12,07,11,19.30
2010,07,12,07,12,22.50
2010,07,12,07,13,19.30
2010,07,12,07,14,24.20
2010,07,12,07,15,29.00
2010,07,12,07,16,20.90
2010,07,12,07,17,11.30
2010,07,12,07,18,16.10
2010,07,12,07,19,30.60
2010,07,12,07,20,25.70
2010,07,12,07,21,19.30
2010,07,12,07,22,22.50
2010,07,12,07,23,29.00
2010,07,12,07,24,16.10
2010,07,12,07,25,16.10
2010,07,12,07,26,11.30
2010,07,12,07,27,11.30
2010,07,12,07,28,11.30
2010,07,12,07,29,19.30
2010,07,12,07,30,17.70
2010,07,12,07,31,20.90
2010,07,12,07,32,22.50
2010,07,12,07,33,30.60
2010,07,12,07,34,27.40
2010,07,12,07,35,27.40
2010,07,12,07,36,19.30
2010,07,12,07,37,30.60
2010,07,12,07,38,33.80
2010,07,12,07,39,29.00
2010,07,12,07,40,24.20
2010,07,12,07,41,22.50
2010,07,12,07,42,19.30
2010,07,12,07,43,29.00
2010,07,12,07,44,32.20
2010,07,12,07,45,22.50
2010,07,12,07,46,24.20
2010,07,12,07,47,29.00
2010,07,12,07,48,30.60
2010,07,12,07,49,32.20
2010,07,12,07,50,37.00
2010,07,12,07,51,32.20
2010,07,12,07,52,20.90
2010,07,12,07,53,20.90
2010,07,12,07,54,25.70
2010,07,12,07,55,35.40
2010,07,12,07,56,24.20
2010,07,12,07,57,17.70
2010,07,12,07,58,20.90
2010,07,12,07,59,30.60
2010,07,12,08,00,24.20
2010,07,12,08,01,27.40
2010,07,12,08,02,29.00
2010,07,12,08,03,32.20
2010,07,12,08,04,32.20
2010,07,12,08,05,19.30
2010,07,12,08,06,19.30
2010,07,12,08,07,20.90
2010,07,12,08,08,29.00
2010,07,12,08,09,25.70
2010,07,12,08,10,33.80
2010,07,12,08,11,27.40
2010,07,12,08,12,19.30
2010,07,12,08,13,22.50
2010,07,12,08,14,24.20
2010,07,12,08,15,30.60
2010,07,12,08,16,24.20
2010,07,12,08,17,33.80
2010,07,12,08,18,16.10
2010,07,12,08,19,25.70
2010,07,12,08,20,24.20
2010,07,12,08,21,25.70
2010,07,12,08,22,30.60
2010,07,12,08,23,25.70
2010,07,12,08,24,19.30
2010,07,12,08,25,17.70
2010,07,12,08,26,17.70
2010,07,12,08,27,20.90
2010,07,12,08,28,30.60
2010,07,12,08,29,25.70
2010,07,12,08,30,27.40
2010,07,12,08,31,20.90
2010,07,12,08,32,19.30
2010,07,12,08,33,20.90
2010,07,12,08,34,20.90
2010,07,12,08,35,30.60
2010,07,12,08,36,25.70
2010,07,12,08,37,27.40
2010,07,12,08,38,43.50
2010,07,12,08,39,35.40
2010,07,12,08,40,24.20
2010,07,12,08,41,24.20
2010,07,12,08,42,25.70
2010,07,12,08,43,27.40
2010,07,12,08,44,29.00
2010,07,12,08,45,25.70
2010,07,12,08,46,27.40
2010,07,12,08,47,24.20
2010,07,12,08,48,20.90
2010,07,12,08,49,24.20
2010,07,12,08,50,24.20
2010,07,12,08,51,20.90
2010,07,12,08,52,19.30
2010,07,12,08,53,17.70
2010,07,12,08,54,17.70
2010,07,12,08,55,20.90
2010,07,12,08,56,20.90
2010,07,12,08,57,22.50
2010,07,12,08,58,17.70
2010,07,12,08,59,27.40
2010,07,12,09,00,24.20
2010,07,12,09,01,24.20
2010,07,12,09,02,22.50
2010,07,12,09,03,19.30
2010,07,12,09,04,29.00
2010,07,12,09,05,33.80
2010,07,12,09,06,24.20
2010,07,12,09,07,25.70
2010,07,12,09,08,33.80
2010,07,12,09,09,24.20
2010,07,12,09,10,25.70
2010,07,12,09,11,27.40
2010,07,12,09,12,25.70
2010,07,12,09,13,24.20
2010,07,12,09,14,20.90
2010,07,12,09,15,11.30
2010,07,12,09,16,20.90
2010,07,12,09,17,24.20
2010,07,12,09,18,20.90
2010,07,12,09,19,16.10
2010,07,12,09,20,29.00
2010,07,12,09,21,25.70
2010,07,12,09,22,16.10
2010,07,12,09,23,24.20
2010,07,12,09,24,37.00
2010,07,12,09,25,35.40
2010,07,12,09,26,33.80
2010,07,12,09,27,29.00
2010,07,12,09,28,30.60
2010,07,12,09,29,29.00
2010,07,12,09,30,22.50
2010,07,12,09,31,22.50
2010,07,12,09,32,17.70
2010,07,12,09,33,27.40
2010,07,12,09,34,27.40
2010,07,12,09,35,30.60
2010,07,12,09,36,20.90
2010,07,12,09,37,30.60
2010,07,12,09,38,30.60
2010,07,12,09,39,25.70
2010,07,12,09,40,17.70
2010,07,12,09,41,16.10
2010,07,12,09,42,17.70
2010,07,12,09,43,17.70
2010,07,12,09,44,16.10
2010,07,12,09,45,20.90
2010,07,12,09,46,29.00
2010,07,12,09,47,24.20
2010,07,12,09,48,27.40
2010,07,12,09,49,27.40
2010,07,12,09,50,22.50
2010,07,12,09,51,22.50
2010,07,12,09,52,20.90
2010,07,12,09,53,24.20
2010,07,12,09,54,20.90
2010,07,12,09,55,29.00
2010,07,12,09,56,29.00
2010,07,12,09,57,24.20
2010,07,12,09,58,19.30
2010,07,12,09,59,17.70
2010,07,12,10,00,24.20
2010,07,12,10,01,19.30
2010,07,12,10,02,25.70
2010,07,12,10,03,22.50
2010,07,12,10,04,37.00
2010,07,12,10,05,30.60
2010,07,12,10,06,25.70
2010,07,12,10,07,25.70
2010,07,12,10,08,20.90
2010,07,12,10,09,30.60
2010,07,12,10,10,35.40
2010,07,12,10,11,20.90
2010,07,12,10,12,25.70
2010,07,12,10,13,29.00
2010,07,12,10,14,24.20
2010,07,12,10,15,29.00
2010,07,12,10,16,24.20
2010,07,12,10,17,19.30
2010,07,12,10,18,25.70
2010,07,12,10,19,27.40
2010,07,12,10,20,24.20
2010,07,12,10,21,22.50
2010,07,12,10,22,22.50
2010,07,12,10,23,29.00
2010,07,12,10,24,29.00
2010,07,12,10,25,25.70
2010,07,12,10,26,27.40
2010,07,12,10,27,27.40
2010,07,12,10,28,29.00
2010,07,12,10,29,30.60
2010,07,12,10,30,19.30
2010,07,12,10,31,30.60
2010,07,12,10,32,27.40
2010,07,12,10,33,25.70
2010,07,12,10,34,32.20
2010,07,12,10,35,32.20
2010,07,12,10,36,25.70
2010,07,12,10,37,19.30
2010,07,12,10,38,19.30
2010,07,12,10,39,17.70
2010,07,12,10,40,33.80
2010,07,12,10,41,14.50
2010,07,12,10,42,24.20
2010,07,12,10,43,27.40
2010,07,12,10,44,22.50
2010,07,12,10,45,17.70
2010,07,12,10,46,16.10
2010,07,12,10,47,19.30
2010,07,12,10,48,17.70
2010,07,12,10,49,16.10
2010,07,12,10,50,22.50
2010,07,12,10,51,19.30
2010,07,12,10,52,16.10
2010,07,12,10,53,20.90
2010,07,12,10,54,32.20
2010,07,12,10,55,24.20
2010,07,12,10,56,17.70
2010,07,12,10,57,14.50
2010,07,12,10,58,20.90
2010,07,12,10,59,33.80
2010,07,12,11,00,25.70
2010,07,12,11,01,20.90
2010,07,12,11,02,24.20
2010,07,12,11,03,27.40
2010,07,12,11,04,30.60
2010,07,12,11,05,20.90
2010,07,12,11,06,19.30
2010,07,12,11,07,24.20
2010,07,12,11,08,27.40
2010,07,12,11,09,25.70
2010,07,12,11,10,27.40
2010,07,12,11,11,27.40
2010,07,12,11,12,29.00
2010,07,12,11,13,19.30
2010,07,12,11,14,24.20
2010,07,12,11,15,22.50
2010,07,12,11,16,25.70
2010,07,12,11,17,22.50
2010,07,12,11,18,24.20
2010,07,12,11,19,19.30
2010,07,12,11,20,22.50
2010,07,12,11,21,16.10
2010,07,12,11,22,22.50
2010,07,12,11,23,20.90
2010,07,12,11,24,24.20
2010,07,12,11,25,17.70
2010,07,12,11,26,14.50
2010,07,12,11,27,20.90
2010,07,12,11,28,24.20
2010,07,12,11,29,24.20
2010,07,12,11,30,19.30
2010,07,12,11,31,14.50
2010,07,12,11,32,16.10
2010,07,12,11,33,16.10
2010,07,12,11,34,22.50
2010,07,12,11,35,25.70
2010,07,12,11,36,19.30
2010,07,12,11,37,9.60
2010,07,12,11,38,9.60
2010,07,12,11,39,16.10
2010,07,12,11,40,16.10
2010,07,12,11,41,20.90
2010,07,12,11,42,14.50
2010,07,12,11,43,22.50
2010,07,12,11,44,20.90
2010,07,12,11,45,16.10
2010,07,12,11,46,25.70
2010,07,12,11,47,25.70
2010,07,12,11,48,29.00
2010,07,12,11,49,19.30
2010,07,12,11,50,19.30
2010,07,12,11,51,29.00
2010,07,12,11,52,29.00
2010,07,12,11,53,29.00
2010,07,12,11,54,19.30
2010,07,12,11,55,29.00
2010,07,12,11,56,22.50
2010,07,12,11,57,20.90
2010,07,12,11,58,25.70
2010,07,12,11,59,29.00
2010,07,12,12,00,25.70
2010,07,12,12,01,24.20
2010,07,12,12,02,25.70
2010,07,12,12,03,22.50
2010,07,12,12,04,17.70
2010,07,12,12,05,17.70
2010,07,12,12,06,33.80
2010,07,12,12,07,25.70
2010,07,12,12,08,29.00
2010,07,12,12,09,35.40
2010,07,12,12,10,24.20
2010,07,12,12,11,25.70
2010,07,12,12,12,24.20
2010,07,12,12,13,20.90
2010,07,12,12,14,22.50
2010,07,12,12,15,29.00
2010,07,12,12,16,25.70
2010,07,12,12,17,30.60
2010,07,12,12,18,29.00
2010,07,12,12,19,33.80
2010,07,12,12,20,25.70
2010,07,12,12,21,32.20
2010,07,12,12,22,38.60
2010,07,12,12,23,30.60
2010,07,12,12,24,32.20
2010,07,12,12,25,35.40
2010,07,12,12,26,30.60
2010,07,12,12,27,25.70
2010,07,12,12,28,29.00
2010,07,12,12,29,32.20
2010,07,12,12,30,29.00
2010,07,12,12,31,30.60
2010,07,12,12,32,35.40
2010,07,12,12,33,27.40
2010,07,12,12,34,38.60
2010,07,12,12,35,30.60
2010,07,12,12,36,37.00
2010,07,12,12,37,25.70
2010,07,12,12,38,25.70
2010,07,12,12,39,25.70
2010,07,12,12,40,35.40
2010,07,12,12,41,29.00
2010,07,12,12,42,43.50
2010,07,12,12,43,30.60
2010,07,12,12,44,37.00
2010,07,12,12,45,35.40
2010,07,12,12,46,32.20
2010,07,12,12,47,29.00
2010,07,12,12,48,33.80
2010,07,12,12,49,29.00
2010,07,12,12,50,30.60
2010,07,12,12,51,32.20
2010,07,12,12,52,30.60
2010,07,12,12,53,33.80
2010,07,12,12,54,30.60
2010,07,12,12,55,37.00
2010,07,12,12,56,29.00
2010,07,12,12,57,33.80
2010,07,12,12,58,29.00
2010,07,12,12,59,29.00
2010,07,12,13,00,27.40
2010,07,12,13,01,29.00
2010,07,12,13,02,32.20
2010,07,12,13,03,25.70
2010,07,12,13,04,25.70
2010,07,12,13,05,25.70
2010,07,12,13,06,45.10
2010,07,12,13,07,37.00
2010,07,12,13,08,32.20
2010,07,12,13,09,30.60
2010,07,12,13,10,37.00
2010,07,12,13,11,32.20
2010,07,12,13,12,32.20
2010,07,12,13,13,38.60
2010,07,12,13,14,35.40
2010,07,12,13,15,37.00
2010,07,12,13,16,25.70
2010,07,12,13,17,35.40
2010,07,12,13,18,38.60
2010,07,12,13,19,30.60
2010,07,12,13,20,33.80
2010,07,12,13,21,45.10
2010,07,12,13,22,35.40
2010,07,12,13,23,35.40
2010,07,12,13,24,27.40
2010,07,12,13,25,38.60
2010,07,12,13,26,41.80
2010,07,12,13,27,38.60
2010,07,12,13,28,41.80
2010,07,12,13,29,29.00
2010,07,12,13,30,40.20
2010,07,12,13,31,35.40
2010,07,12,13,32,32.20
2010,07,12,13,33,33.80
2010,07,12,13,34,30.60
2010,07,12,13,35,25.70
2010,07,12,13,36,41.80
2010,07,12,13,37,32.20
2010,07,12,13,38,38.60
2010,07,12,13,39,41.80
2010,07,12,13,40,38.60
2010,07,12,13,41,32.20
2010,07,12,13,42,27.40
2010,07,12,13,43,30.60
2010,07,12,13,44,32.20
2010,07,12,13,45,35.40
2010,07,12,13,46,25.70
2010,07,12,13,47,22.50
2010,07,12,13,48,20.90
2010,07,12,13,49,33.80
2010,07,12,13,50,38.60
2010,07,12,13,51,33.80
2010,07,12,13,52,30.60
2010,07,12,13,53,33.80
2010,07,12,13,54,27.40
2010,07,12,13,55,32.20
2010,07,12,13,56,30.60
2010,07,12,13,57,32.20
2010,07,12,13,58,29.00
2010,07,12,13,59,30.60
2010,07,12,14,00,27.40
2010,07,12,14,01,22.50
2010,07,12,14,02,37.00
2010,07,12,14,03,32.20
2010,07,12,14,04,27.40
2010,07,12,14,05,32.20
2010,07,12,14,06,32.20
2010,07,12,14,07,35.40
2010,07,12,14,08,37.00
2010,07,12,14,09,35.40
2010,07,12,14,10,41.80
2010,07,12,14,11,32.20
2010,07,12,14,12,38.60
2010,07,12,14,13,29.00
2010,07,12,14,14,35.40
2010,07,12,14,15,33.80
2010,07,12,14,16,30.60
2010,07,12,14,17,29.00
2010,07,12,14,18,38.60
2010,07,12,14,19,35.40
2010,07,12,14,20,22.50
2010,07,12,14,21,41.80
2010,07,12,14,22,38.60
2010,07,12,14,23,27.40
2010,07,12,14,24,33.80
2010,07,12,14,25,40.20
2010,07,12,14,26,41.80
2010,07,12,14,27,40.20
2010,07,12,14,28,37.00
2010,07,12,14,29,29.00
2010,07,12,14,30,40.20
2010,07,12,14,31,46.70
2010,07,12,14,32,30.60
2010,07,12,14,33,27.40
2010,07,12,14,34,38.60
2010,07,12,14,35,30.60
2010,07,12,14,36,27.40
2010,07,12,14,37,40.20
2010,07,12,14,38,30.60
2010,07,12,14,39,32.20
2010,07,12,14,40,32.20
2010,07,12,14,41,38.60
2010,07,12,14,42,35.40
2010,07,12,14,43,43.50
2010,07,12,14,44,41.80
2010,07,12,14,45,37.00
2010,07,12,14,46,45.10
2010,07,12,14,47,51.50
2010,07,12,14,48,41.80
2010,07,12,14,49,38.60
2010,07,12,14,50,41.80
2010,07,12,14,51,37.00
2010,07,12,14,52,41.80
2010,07,12,14,53,45.10
2010,07,12,14,54,24.20
2010,07,12,14,55,30.60
2010,07,12,14,56,30.60
2010,07,12,14,57,25.70
2010,07,12,14,58,37.00
2010,07,12,14,59,43.50
2010,07,12,15,00,38.60
2010,07,12,15,01,41.80
2010,07,12,15,02,51.50
2010,07,12,15,03,48.30
2010,07,12,15,04,43.50
2010,07,12,15,05,49.90
2010,07,12,15,06,49.90
2010,07,12,15,07,41.80
2010,07,12,15,08,45.10
2010,07,12,15,09,53.10
2010,07,12,15,10,45.10
2010,07,12,15,11,40.20
2010,07,12,15,12,24.20
2010,07,12,15,13,45.10
2010,07,12,15,14,37.00
2010,07,12,15,15,46.70
2010,07,12,15,16,40.20
2010,07,12,15,17,48.30
2010,07,12,15,18,48.30
2010,07,12,15,19,40.20
2010,07,12,15,20,43.50
2010,07,12,15,21,37.00
2010,07,12,15,22,33.80
2010,07,12,15,23,41.80
2010,07,12,15,24,40.20
2010,07,12,15,25,38.60
2010,07,12,15,26,33.80
2010,07,12,15,27,37.00
2010,07,12,15,28,37.00
2010,07,12,15,29,35.40
2010,07,12,15,30,30.60
2010,07,12,15,31,30.60
2010,07,12,15,32,45.10
2010,07,12,15,33,40.20
2010,07,12,15,34,43.50
2010,07,12,15,35,41.80
2010,07,12,15,36,49.90
2010,07,12,15,37,35.40
2010,07,12,15,38,37.00
2010,07,12,15,39,30.60
2010,07,12,15,40,27.40
2010,07,12,15,41,20.90
2010,07,12,15,42,25.70
2010,07,12,15,43,32.20
2010,07,12,15,44,29.00
2010,07,12,15,45,32.20
2010,07,12,15,46,33.80
2010,07,12,15,47,38.60
2010,07,12,15,48,37.00
2010,07,12,15,49,41.80
2010,07,12,15,50,37.00
2010,07,12,15,51,32.20
2010,07,12,15,52,32.20
2010,07,12,15,53,30.60
2010,07,12,15,54,40.20
2010,07,12,15,55,38.60
2010,07,12,15,56,30.60
2010,07,12,15,57,25.70
2010,07,12,15,58,38.60
2010,07,12,15,59,35.40
2010,07,12,16,00,53.10
2010,07,12,16,01,27.40
2010,07,12,16,02,38.60
2010,07,12,16,03,45.10
2010,07,12,16,04,33.80
2010,07,12,16,05,35.40
2010,07,12,16,06,32.20
2010,07,12,16,07,33.80
2010,07,12,16,08,33.80
2010,07,12,16,09,30.60
2010,07,12,16,10,35.40
2010,07,12,16,11,38.60
2010,07,12,16,12,48.30
2010,07,12,16,13,25.70
2010,07,12,16,14,27.40
2010,07,12,16,15,25.70
2010,07,12,16,16,33.80
2010,07,12,16,17,35.40
2010,07,12,16,18,46.70
2010,07,12,16,19,35.40
2010,07,12,16,20,33.80
2010,07,12,16,21,29.00
2010,07,12,16,22,27.40
2010,07,12,16,23,22.50
2010,07,12,16,24,37.00
2010,07,12,16,25,35.40
2010,07,12,16,26,32.20
2010,07,12,16,27,38.60
2010,07,12,16,28,27.40
2010,07,12,16,29,33.80
2010,07,12,16,30,37.00
2010,07,12,16,31,29.00
2010,07,12,16,32,29.00
2010,07,12,16,33,37.00
2010,07,12,16,34,43.50
2010,07,12,16,35,38.60
2010,07,12,16,36,45.10
2010,07,12,16,37,30.60
2010,07,12,16,38,32.20
2010,07,12,16,39,41.80
2010,07,12,16,40,38.60
2010,07,12,16,41,25.70
2010,07,12,16,42,29.00
2010,07,12,16,43,25.70
2010,07,12,16,44,35.40
2010,07,12,16,45,33.80
2010,07,12,16,46,30.60
2010,07,12,16,47,37.00
2010,07,12,16,48,32.20
2010,07,12,16,49,29.00
2010,07,12,16,50,29.00
2010,07,12,16,51,20.90
2010,07,12,16,52,38.60
2010,07,12,16,53,40.20
2010,07,12,16,54,35.40
2010,07,12,16,55,32.20
2010,07,12,16,56,25.70
2010,07,12,16,57,20.90
2010,07,12,16,58,20.90
2010,07,12,16,59,27.40
2010,07,12,17,00,24.20
2010,07,12,17,01,27.40
2010,07,12,17,02,22.50
2010,07,12,17,03,35.40
2010,07,12,17,04,30.60
2010,07,12,17,05,32.20
2010,07,12,17,06,24.20
2010,07,12,17,07,30.60
2010,07,12,17,08,30.60
2010,07,12,17,09,22.50
2010,07,12,17,10,27.40
2010,07,12,17,11,33.80
2010,07,12,17,12,29.00
2010,07,12,17,13,33.80
2010,07,12,17,14,25.70
2010,07,12,17,15,29.00
2010,07,12,17,16,38.60
2010,07,12,17,17,41.80
2010,07,12,17,18,33.80
2010,07,12,17,19,35.40
2010,07,12,17,20,37.00